TimeAKST,TemperatureF,Dew PointF,Humidity,Sea Level PressureIn,VisibilityMPH,Wind Direction,Wind SpeedMPH,Gust SpeedMPH,PrecipitationIn,Events,Conditions,WindDirDegrees,DateUTC
12:53 AM,28.9,12.9,51,29.42,10.0,NNE,5.8,-,N/A,,Overcast,20,2012-12-27 09:53:00
1:53 AM,28.9,14.0,54,29.41,10.0,NNE,5.8,-,N/A,,Partly Cloudy,20,2012-12-27 10:53:00
3:53 AM,28.9,14.0,54,29.41,10.0,NNE,13.8,19.6,N/A,,Clear,30,2012-12-27 12:53:00
4:53 AM,30.0,14.0,51,29.38,10.0,NNE,11.5,21.9,N/A,,Clear,30,2012-12-27 13:53:00
5:53 AM,28.9,14.0,54,29.37,10.0,NNE,10.4,21.9,N/A,,Clear,20,2012-12-27 14:53:00
6:53 AM,28.9,14.0,54,29.36,10.0,NNE,11.5,18.4,N/A,,Clear,30,2012-12-27 15:53:00
7:53 AM,28.9,14.0,54,29.34,10.0,NNE,11.5,23.0,N/A,,Clear,20,2012-12-27 16:53:00
8:53 AM,30.0,14.0,51,29.35,10.0,North,8.1,-,N/A,,Clear,10,2012-12-27 17:53:00
9:53 AM,28.9,12.9,51,29.35,10.0,NNE,8.1,21.9,N/A,,Clear,20,2012-12-27 18:53:00
10:53 AM,28.0,14.0,56,29.36,10.0,North,4.6,-,N/A,,Clear,360,2012-12-27 19:53:00
11:53 AM,26.1,14.0,60,29.37,10.0,Variable,5.8,-,N/A,,Clear,0,2012-12-27 20:53:00
12:53 PM,25.0,14.0,63,29.36,10.0,Calm,Calm,-,N/A,,Clear,0,2012-12-27 21:53:00
1:53 PM,26.1,12.9,58,29.37,10.0,NE,9.2,-,N/A,,Clear,50,2012-12-27 22:53:00
2:53 PM,26.1,12.9,58,29.37,10.0,North,5.8,-,N/A,,Clear,350,2012-12-27 23:53:00
3:53 PM,24.1,12.9,62,29.38,10.0,North,4.6,-,N/A,,Clear,350,2012-12-28 00:53:00
4:53 PM,19.0,10.9,71,29.38,10.0,Calm,Calm,-,N/A,,Partly Cloudy,0,2012-12-28 01:53:00
6:53 PM,17.1,9.0,71,29.41,10.0,Calm,Calm,-,N/A,,Mostly Cloudy,0,2012-12-28 03:53:00
7:53 PM,18.0,10.9,74,29.42,10.0,Calm,Calm,-,N/A,,Overcast,0,2012-12-28 04:53:00
8:53 PM,14.0,9.0,80,29.43,8.0,Calm,Calm,-,N/A,,Clear,0,2012-12-28 05:53:00
9:53 PM,14.0,10.0,84,29.44,10.0,Calm,Calm,-,N/A,,Clear,0,2012-12-28 06:53:00
10:53 PM,10.9,8.1,88,29.46,10.0,Calm,Calm,-,N/A,,Clear,0,2012-12-28 07:53:00
11:53 PM,10.0,7.0,87,29.48,10.0,Calm,Calm,-,N/A,,Clear,0,2012-12-28 08:53:00